Погода Алуксне

Погода Алуксне : погода сейчас, прогноз погоды и архив. Всё, что Вы хотите узнать о погоде Алуксне!

Поиск расширенной информации на нашем сайте:

Другие новости

Новости СМИ2

Главная страница сайта

Новости сайта

03.07.2017

Напоминаем, что на нашем специализированном сайте Метеоцентр.Азия вы можете получить высокодетализированные автоматические прогнозы погоды по пунктам России, СНГ и мира в авиационном формате (включающие направление и скорость ветра, видимость, явления погоды, количество и форму облачности, нижнюю и верхнюю границу облачности).


Погода Алуксне - сегодня

Время (UTC), дата Ветер
(°,м/с) 
Видим.   Явления Облачность Т
(°С)
Тd
(°С)
f(%) Тe
(°С)
Pmin
(гПа)
dP
(гПа)
Po
(мм)
O2
(г/м3)
Тmin Tmax R s Состояние
почвы
21 17.08.17 210 (ЮЗ) 10 км    8/3 300 м кучево-дожд., средняя 
[Cb calv|Ac lent]
+16.2 +14.7 91 +26  1019.3  0.1  747  280           
00 18.08.17 200 (Ю) 10 км    ясно 
+14.5 +13.1 91 +22  1019.1  -0.4  747  283           
03 18.08.17 210 (ЮЗ) 4000 м  дымка  10/0 средняя 
[As op]
+13.7 +13.5 99 +21  1019.1  747  283           
06 18.08.17 190 (Ю) 10 км    5/0 верхняя 
[Ci fib]
+16.8 +14.6 87 +26  1019  0.1  747  280  +13.4         
09 18.08.17 210 (ЮЗ) 10 км    8/0 верхняя 
[Ci fib]
+21 +13.6 63 +28  1018.3  -0.3  747  276           
12 18.08.17 160 (Ю) 10 км    9/5 300 м кучево-дожд., средняя 
[Cb calv|Ac lent]
+21.4 +11.9 55 +25  1017.2  -1.1  746  276           
15 18.08.17 150 (ЮВ) 10 км    8/3 300 м кучево-дожд., средняя 
[Cb calv|Ac lent]
+21.6 +14.9 66 +30  1015.5  -1.6  745  274           
18 18.08.17 тихо ()   10 км    8/0 средняя, верхняя 
[Ac lent|Ci ing]
+19.5 +17.7 89 +34  1015.7  0.1  745  275    +22.8       
21 18.08.17 200 (Ю) 10 км    8/0 средняя, верхняя 
[Ac lent|Ci fib]
+18.6 +15.6 83 +30  1015.8  745  277           
00 19.08.17 170 (Ю) 10 км    3/0 средняя 
[Ac lent]
+16.7 +15.1 90 +27  1015.3  -0.7  744  279           
03 19.08.17 170 (Ю) 10 км    10/0 средняя, верхняя 
[Ac trans|Cs]
+17.2 +16 93 +29  1014.7  -0.5  744  278           
06 19.08.17 170 (Ю) 10 км    8/0 средняя, верхняя 
[Ac trans|Cs]
+21.1 +17 77 +34  1013.3  -1.1  743  273  +16.5         
09 19.08.17 170 (Ю) 10 км    3/0 верхняя 
[Ci fib]
+25 +18.4 67 +41  1012.1  -0.8  742  269           
12 19.08.17 170 (Ю) 10 км    4/0 средняя, верхняя 
[Ac lent|Ci fib]
+28.1 +17.5 53 +42  1011.1  -0.8  742  267           
15 19.08.17 190 (Ю) 3{10}  10 км    8/3 600 м средняя, верхняя 
[Sc diur, vesp|Ac lent|Ci fib]
+26.7 +16.8 55 +39  1010.3  -0.9  741  268           
18 19.08.17 270 (З) 2{15}  10 км  гроза, ливневой дождь  10/10 300 м кучево-дожд. 
[Cb cap]
+18.3 +18.1 99 +34  1013.6  2.6  743  276    +28.8  27     
21 19.08.17 320 (СЗ) 10 км  слаб. ливневой дождь{гроза}  10/10 300 м кучево-дожд. 
[Cb cap]
+17.6 +17.4 99 +31  1014.6  0.9  744  277           
00 20.08.17 тихо ()   10 км  в посл. час ливневой дождь{гроза}  10/10 600 м 
[Sc diur, vesp]
+16 +15.8 99 +26  1016.1  1.4  745  280           
03 20.08.17 280 (З) 10 км  {ливн. осадки}  8/8 600 м 
[Sc diur, vesp]
+14.9 +14.5 97 +24  1017  0.7  745  281           
06 20.08.17 300 (СЗ) 10 км  {ливн. осадки}  10/8 300 м средняя 
[St|Ac lent]
+15.3 +14.8 97 +26  1018  1.1  746  281  +14.7    13     
09 20.08.17 тихо ()   10 км    10/9 300 м средняя 
[St|Ac und]
+16.5 +13.7 84 +23  1018.9  0.9  747  280           
12 20.08.17 тихо ()   10 км  в посл. час ливневой дождь  10/10 300 м кучево-дожд. 
[Cb calv]
+16.2 +14 87 +23  1018.9  747  281           
15 20.08.17 тихо ()   10 км  слаб. ливневой дождь  10/8 300 м кучево-дожд., средняя 
[Cb cap|Ac lent]
+14.8 +13.8 94 +22  1018.6  -0.4  747  282           
18 20.08.17 310 (СЗ) 10 км  слаб. ливневой дождь  10/6 300 м кучево-дожд., средняя 
[Cb cap|Ac und]
+13.3 +12.8 97 +19  1017.6  -1.1  746  283    +16.8     
21 20.08.17 310 (СЗ) 2000 м  гроза, ливневой дождь  10/10 300 м кучево-дожд. 
[Cb cap]
+12.1 +11.7 97 +17  1016.8  -0.9  745  284           
Время (UTC), дата Ветер
(°,м/с) 
Видим.   Явления Облачность Т
(°С)
Тd
(°С)
f(%) Тe
(°С)
Pmin
(гПа)
dP
(гПа)
Po
(мм)
O2
(г/м3)
Тmin Tmax R s Состояние
почвы

Для получения пояснительной информации подведите курсор к названию столбца.

ПОГОДА Алуксне - архив

Всё, что Вы хотите узнать о погоде Алуксне - удобно и подробно!

Выберите нужную дату (начиная с 1 января 2015* года) и нажмите кнопку "Найти".
Будут отображены архивные сводки погоды по пункту Алуксне, начиная с указанной даты.


Отображать данные в формате CSV (для использования в таблицах Excel)


Внимание! Наш архив погоды предназначен исключительно для личного некоммерческого использования в познавательных целях. Если Вам необходимы официальные справки о состоянии погоды (для производственных, юридических, коммерческих и т.п. целей), обращайтесь в органы Росгидромета.

*Примечание: данная дата относится к архиву по метеостанциям СССР (Россия, СНГ, Балтия).
Архив по метеостанциям Зарубежной Европы и Азии (кроме Китая) хранится 10 дней, по другим регионам земного шара (Китай, Африка, Америка, Австралия, Океания) - 1 день.

Алуксне - район местоположения метеостанции


Название, широта, долгота, высота метеостанции:
Алуксне 57.4°ш. 27°д. 193 м над ур. моря [Латвия]

Дополнительная информация

В oтличие oт бoльшинства пoгoдных сайтoв мы публикуем пoдрoбную метеoинфoрмацию в детальнoм прoфессиoнальнoм фoрмате.

Характеристики температуры и влажнoсти вoздуха измеряются на высoте 2 м в тени вдали oт зданий и деревьев.
Скoрoсть ветра измеряется на высoте 10 м (на урoвне рoста челoвека скoрoсть ветра ниже в 1.5-2 раза). Если метеoстанция нахoдится в гoрoде или в лесу, тo скoрoсть ветра занижена на 2-4 м/с пo сравнению с oткрытым местoм. Скoрoсть ветра над акватoриями крупных рек и oзёр, а также на вершинах хoлмoв на 2-5 м/с выше, чем в oбычных услoвиях.
Атмoсфернoе давление в разных тoчках местнoсти мoжет значительнo oтличаться oт давления на метеoстанции, в зависимoсти oт услoвий рельефа (при пoдъёме на 10 м давление пoнижается примернo на 1 мм рт.ст.).